Location: *
(50.9167°S, 179.4000°W)
Time: 20:44:04
(UTC+00:00)

Cosmos 1455 Rocket - Pass Details

Date: 03 March 2024
Orbit: 601 x 626 km, 82.5° (Epoch: 16 April)

Event Time Altitude Azimuth Distance (km) Brightness Sun altitude
Rises 14:43:23 0° 197° (SSW) 2,903 6.9 -23.7°
Reaches altitude 10° 14:45:44 10° 204° (SSW) 1,989 5.9 -23.5°
Enters shadow 14:48:34 32° 234° (SW) 1,069 4.1 -23.2°
